FW6908 Weather Reports


time (UTC)temp
F
wind
direction
speed
knots
gust
knots
rain 1hr
in
rain 24hr
in
rain mn
in
humidity
%
barometer
mb
20260504014513 47 134 2.6 4.3 0.00 0.06 0.00 71 1020.3
20260504014012 47 54 2.6 4.3 0.00 0.06 0.00 70 1020.3
20260504013513 48 105 1.7 7.8 0.00 0.06 0.00 70 1020.4
20260504013016 48 92 3.5 7.8 0.00 0.06 0.00 69 1020.3
20260504012510 48 28 0.0 7.0 0.00 0.06 0.00 69 1020.4
20260504012009 48 347 1.7 4.3 0.00 0.06 0.00 68 1020.3
20260504011509 48 107 1.7 3.5 0.00 0.06 0.00 68 1020.3
20260504011010 49 98 0.0 2.6 0.00 0.06 0.00 67 1020.4
20260504010508 48 119 0.9 2.6 0.00 0.06 0.00 67 1020.3
20260504010009 48 97 1.7 3.5 0.00 0.06 0.00 68 1020.3
20260504005509 49 15 0.0 3.5 0.00 0.06 0.00 67 1020.3
20260504005008 48 119 0.0 2.6 0.00 0.06 0.00 68 1020.1
20260504004516 49 124 0.9 2.6 0.00 0.06 0.00 67 1020.2
20260504004007 49 119 0.0 2.6 0.00 0.06 0.00 66 1020.2
20260504003506 49 101 1.7 2.6 0.00 0.06 0.00 67 1020.2
20260504003006 49 296 0.9 3.5 0.00 0.06 0.00 66 1020.1
20260504002506 49 304 0.9 4.3 0.00 0.06 0.00 66 1020.1
20260504002006 49 71 0.9 7.0 0.00 0.06 0.00 66 1020.1
20260504001506 49 350 1.7 6.1 0.00 0.06 0.00 65 1020.0
20260504001007 49 212 0.0 4.3 0.00 0.06 0.00 65 1020.0
20260504000505 49 211 1.7 4.3 0.00 0.06 0.00 65 1020.0
20260504000005 49 89 0.9 2.6 0.00 0.06 0.00 66 1020.2
20260503235504 49 336 0.0 1.7 0.00 0.06 0.00 65 1020.2
20260503235004 49 337 0.0 7.0 0.00 0.06 0.00 65 1020.2
20260503234504 49 344 0.9 9.6 0.00 0.06 0.00 65 1020.2
20260503234005 49 254 5.2 9.6 0.00 0.06 0.00 66 1020.1
20260503233502 49 246 4.3 7.8 0.00 0.06 0.00 66 1020.2
20260503233001 49 261 1.7 3.5 0.00 0.06 0.00 67 1020.3
20260503232502 49 142 1.7 3.5 0.00 0.06 0.00 67 1020.2
20260503232001 49 49 0.9 2.6 0.00 0.06 0.00 68 1020.3
20260503231607 48 43 0.9 2.6 0.00 0.06 0.00 68 1020.3
20260503231100 48 42 0.9 2.6 0.00 0.06 0.00 69 1020.2
20260503230559 49 48 0.0 0.0 0.00 0.06 0.00 66 1020.2
20260503230116 49 47 0.0 0.9 0.00 0.06 0.00 66 1020.2
20260503225557 50 45 0.0 2.6 0.00 0.09 0.00 65 1020.2
20260503225056 50 27 0.9 2.6 0.00 0.09 0.00 64 1020.1
20260503224603 50 84 0.9 1.7 0.00 0.09 0.00 63 1020.2
20260503224055 50 84 0.0 2.6 0.00 0.09 0.00 63 1020.3
20260503223555 50 137 0.9 5.2 0.00 0.09 0.00 63 1020.3
20260503223054 50 130 1.7 5.2 0.00 0.09 0.00 63 1020.4
20260503222555 50 146 3.5 5.2 0.00 0.09 0.00 64 1020.3
20260503222053 50 326 0.9 3.5 0.00 0.09 0.00 63 1020.4
20260503221553 50 161 1.7 4.3 0.00 0.09 0.00 63 1020.3
20260503221054 50 161 0.0 7.0 0.00 0.09 0.00 64 1020.5
20260503220552 50 155 5.2 7.0 0.00 0.09 0.00 64 1020.4
20260503220052 50 47 0.9 3.5 0.00 0.09 0.00 64 1020.4
20260503215550 50 355 0.9 3.5 0.00 0.09 0.00 64 1020.4
20260503215052 50 360 0.9 7.0 0.00 0.09 0.00 64 1020.4
20260503214551 50 296 1.7 7.0 0.00 0.09 0.00 64 1020.3
20260503214050 50 333 3.5 8.7 0.00 0.09 0.00 64 1020.4
20260503213549 50 342 4.3 11.3 0.00 0.09 0.00 64 1020.3
20260503213054 50 327 7.8 11.3 0.00 0.09 0.00 63 1020.4
20260503212548 51 10 3.5 8.7 0.00 0.09 0.00 63 1020.4
20260503212047 51 338 6.1 8.7 0.00 0.09 0.00 63 1020.4
20260503211604 51 328 1.7 7.8 0.00 0.09 0.00 62 1020.3
20260503211145 51 360 0.9 5.2 0.00 0.09 0.00 62 1020.4
20260503210546 51 273 0.9 2.6 0.00 0.09 0.00 61 1020.3
20260503210044 51 299 0.0 4.3 0.00 0.09 0.09 62 1020.3
20260503205544 51 299 1.7 5.2 0.00 0.09 0.09 62 1020.3
20260503205043 51 349 2.6 7.0 0.00 0.09 0.09 62 1020.3
20260503204543 52 303 3.5 10.4 0.00 0.09 0.09 61 1020.3
20260503204043 52 294 7.0 10.4 0.00 0.09 0.09 61 1020.4
20260503203542 52 333 3.5 7.0 0.00 0.09 0.09 61 1020.3
20260503203047 52 326 3.5 7.0 0.00 0.09 0.09 60 1020.4
20260503202545 52 321 1.7 5.2 0.00 0.09 0.09 60 1020.4
20260503202043 52 248 0.0 4.3 0.00 0.09 0.09 60 1020.5
20260503201543 52 287 2.6 5.2 0.00 0.09 0.09 60 1020.4
20260503201046 52 331 3.5 7.0 0.00 0.09 0.09 60 1020.4
20260503200541 52 318 4.3 11.3 0.00 0.09 0.09 60 1020.5
20260503200054 52 311 4.3 11.3 0.00 0.09 0.09 59 1020.5
20260503195541 52 294 2.6 6.1 0.00 0.09 0.09 59 1020.5
20260503195043 52 313 1.7 8.7 0.00 0.09 0.09 59 1020.6
20260503194544 52 315 3.5 8.7 0.00 0.09 0.09 59 1020.6
20260503194042 52 323 5.2 7.8 0.00 0.09 0.09 59 1020.5
20260503193542 52 343 2.6 7.8 0.00 0.09 0.09 59 1020.5
20260503193052 53 329 4.3 7.8 0.00 0.09 0.09 58 1020.5
20260503192541 53 319 2.6 7.0 0.00 0.09 0.09 58 1020.5
20260503192040 53 360 3.5 8.7 0.00 0.09 0.09 58 1020.5
20260503191640 53 336 4.3 10.4 0.00 0.09 0.09 58 1020.5
20260503191041 53 355 5.2 10.4 0.00 0.09 0.09 59 1020.5
20260503190539 53 295 7.0 9.6 0.00 0.09 0.09 58 1020.5
20260503190044 52 315 6.1 9.6 0.00 0.09 0.09 59 1020.5
20260503185538 53 304 5.2 7.8 0.00 0.09 0.09 59 1020.4
20260503185037 53 315 4.3 8.7 0.00 0.09 0.09 58 1020.3
20260503184546 53 314 3.5 12.2 0.00 0.09 0.09 58 1020.3
20260503184036 53 313 6.1 12.2 0.00 0.09 0.09 57 1020.1
20260503183534 53 316 7.0 18.2 0.00 0.09 0.09 57 1020.0
20260503183040 53 336 7.8 18.2 0.00 0.09 0.09 57 1019.8
20260503182536 53 351 7.0 12.2 0.00 0.09 0.09 58 1019.7
20260503182033 53 331 7.0 14.8 0.00 0.09 0.09 58 1019.8
20260503181540 53 325 7.8 14.8 0.00 0.09 0.09 58 1019.7
20260503181133 54 321 7.0 10.4 0.00 0.09 0.09 57 1019.6
20260503180532 54 334 6.1 9.6 0.00 0.09 0.09 56 1019.7
20260503180133 54 355 5.2 11.3 0.00 0.09 0.09 56 1019.6
20260503175530 54 333 6.1 13.9 0.00 0.09 0.09 56 1019.6
20260503175030 54 355 7.8 13.9 0.00 0.09 0.09 56 1019.6
20260503174543 54 325 7.0 12.2 0.00 0.09 0.09 56 1019.5
20260503174030 54 360 5.2 17.4 0.00 0.09 0.09 56 1019.4
20260503173529 54 331 9.6 17.4 0.00 0.09 0.09 56 1019.4
20260503173039 54 10 8.7 13.9 0.00 0.09 0.09 56 1019.3
20260503172528 54 350 2.6 9.6 0.00 0.09 0.09 56 1019.4
20260503172031 54 360 5.2 9.6 0.00 0.09 0.09 55 1019.2
20260503171527 54 15 5.2 9.6 0.00 0.09 0.09 55 1019.2
20260503171029 54 315 1.7 14.8 0.00 0.09 0.09 55 1019.2
20260503170530 54 347 7.0 14.8 0.00 0.09 0.09 55 1019.1
20260503150524 56 335 8.7 15.6 0.00 0.09 0.09 51 1018.3
20260503131008 57 19 8.7 18.2 0.00 0.09 0.09 51 1018.2
20260503130507 57 348 11.3 20.0 0.00 0.09 0.09 51 1018.1
20260503110553 52 310 8.7 13.0 0.00 0.09 0.09 67 1018.7
20260503081543 55 13 12.2 21.7 0.00 0.09 0.09 59 1018.3
20260503081041 54 350 15.6 21.7 0.00 0.09 0.09 58 1017.9
20260503080541 54 22 10.4 20.9 0.00 0.09 0.09 58 1018.1
20260503072537 53 20 9.6 15.6 0.00 0.09 0.09 65 1017.9
20260503072032 52 62 10.4 16.5 0.00 0.09 0.09 66 1018.0
20260503071530 52 28 8.7 16.5 0.00 0.09 0.09 65 1017.9
20260503071029 51 86 8.7 13.9 0.00 0.09 0.09 71 1018.0
20260503070528 49 17 3.5 10.4 0.00 0.09 0.09 73 1018.0
20260503055018 45 355 4.3 11.3 0.02 0.09 0.09 82 1018.4
20260503054518 45 24 6.1 13.9 0.02 0.09 0.08 82 1018.5
20260503054019 45 71 5.2 17.4 0.02 0.09 0.08 81 1018.6
20260503053517 45 77 9.6 17.4 0.02 0.08 0.07 81 1018.7
20260503053019 45 83 11.3 18.2 0.02 0.08 0.07 81 1018.6
20260503052516 45 60 8.7 19.1 0.02 0.08 0.07 82 1018.3
20260503052015 45 90 11.3 20.0 0.02 0.08 0.07 82 1018.2
20260503051530 45 77 12.2 20.9 0.01 0.07 0.06 82 1018.2
20260503051013 45 71 12.2 20.9 0.01 0.07 0.06 81 1018.2
20260503050512 45 93 13.9 20.9 0.02 0.07 0.06 81 1018.1
20260503050011 45 92 13.9 19.1 0.02 0.07 0.06 81 1018.0
20260503045510 45 66 7.8 14.8 0.02 0.07 0.06 80 1018.1
20260503045009 46 111 5.2 13.9 0.02 0.07 0.06 80 1018.0
20260503044508 46 93 7.8 14.8 0.01 0.06 0.06 80 1018.1
20260503044008 46 103 10.4 14.8 0.01 0.06 0.06 79 1018.0
20260503043507 46 77 7.8 13.9 0.01 0.06 0.06 79 1018.0
20260503043007 46 34 7.0 13.9 0.01 0.06 0.06 79 1017.9
20260503042507 47 78 2.6 7.0 0.01 0.06 0.06 79 1018.1
20260503042005 47 52 0.9 8.7 0.01 0.06 0.06 79 1018.1
20260503041505 47 64 4.3 9.6 0.01 0.06 0.06 79 1018.0
20260503041008 47 192 4.3 9.6 0.01 0.06 0.06 80 1017.8
20260503040505 46 97 0.9 7.0 0.00 0.06 0.05 80 1017.8
20260503040005 46 78 4.3 7.0 0.00 0.06 0.05 80 1017.7
20260503035504 47 94 3.5 6.1 0.00 0.06 0.05 80 1017.7
20260503035005 47 90 0.9 4.3 0.00 0.06 0.05 80 1017.7
20260503034505 47 22 1.7 4.3 0.00 0.06 0.05 79 1017.6
20260503034004 47 69 0.9 4.3 0.01 0.06 0.05 79 1017.6
20260503033505 47 76 0.0 5.2 0.01 0.06 0.05 79 1017.5
20260503033005 47 103 1.7 5.2 0.01 0.06 0.05 78 1017.4
20260503032503 47 83 3.5 12.2 0.02 0.06 0.05 77 1017.3
20260503032003 47 14 4.3 12.2 0.02 0.06 0.05 76 1017.2
20260503031503 47 336 3.5 9.6 0.02 0.06 0.05 76 1017.2
20260503031003 47 327 7.0 11.3 0.02 0.06 0.05 76 1017.2
20260503030502 47 337 7.0 14.8 0.02 0.06 0.05 76 1017.2
20260503030003 47 355 9.6 14.8 0.02 0.06 0.05 77 1017.2
20260503025502 47 337 3.5 7.8 0.02 0.06 0.05 79 1017.3
20260503025002 47 61 3.5 7.8 0.02 0.06 0.05 79 1017.4
20260503024502 47 360 1.7 8.7 0.02 0.06 0.05 79 1017.2
20260503024002 47 326 5.2 8.7 0.02 0.06 0.04 78 1017.3
20260503023102 47 329 5.2 10.4 0.02 0.06 0.04 77 1017.5
20260503023002 47 323 6.1 10.4 0.02 0.06 0.04 77 1017.4
20260503022600 47 328 3.5 15.6 0.01 0.05 0.03 77 1017.5
20260503022100 47 10 7.0 16.5 0.01 0.05 0.03 76 1017.5
20260503021607 47 349 10.4 16.5 0.01 0.05 0.03 77 1017.4
20260503021059 47 342 8.7 13.0 0.01 0.05 0.03 78 1017.5
20260503020600 47 36 3.5 7.0 0.00 0.04 0.02 78 1017.5
20260503020100 47 28 3.5 11.3 0.00 0.04 0.02 77 1017.5
20260503015558 47 333 4.3 11.3 0.00 0.04 0.02 75 1017.5
20260503015058 48 35 5.2 16.5 0.00 0.04 0.02 73 1017.5